Location: Springfield
(37.2150°N, 93.2980°W)
Time: 05:58:52
(UTC-05:00)

Cosmos 1624 Rocket - Pass Details

Date: 19 April 2018
Orbit: 758 x 783 km, 74.0° (Epoch: 21 September)

Event Time Altitude Azimuth Distance (km) Brightness Sun altitude
Exits shadow 22:31:00 65° 264° (W) 832 4.2 -28.3°
Maximum altitude 22:31:20 67° 289° (WNW) 820 4.2 -28.4°
Drops below altitude 10° 22:36:30 10° 12° (NNE) 2,293 6.8 -29.1°
Sets 22:38:54 0° 16° (NNE) 3,222 7.6 -29.5°
